Regional Weather Roundup
Issued by NWS

Home | Current Version | Previous Version | Text Only | Print | Product List | Glossary Off
Versions: 1 2 3 4 5 6 7 8 9 10 11 12 13 14 15 16 17 18 19 20 21 22 23 24 25 26 27 28 29 30 31 32 33 34 35 36 37 38 39 40 41 42 43 44 45 46 47 48 49 50

000
ASUS43 KDTX 071910
RWRMI
MICHIGAN HOURLY REGIONAL WEATHER ROUNDUP
NATIONAL WEATHER SERVICE DETROIT/PONTIAC MI
300 PM EDT TUE JUL 07 2015

NOTE: "FAIR" INDICATES FEW OR NO CLOUDS BELOW 12,000 FEET WITH NO
SIGNIFICANT WEATHER AND/OR OBSTRUCTION TO VISIBILITY.

MIZ047>049-052>055-059>063-066>070-074>076-081>083-072000-
SOUTHEAST LOWER MICHIGAN

CITY           SKY/WX    TMP DP  RH WIND       PRES   REMARKS
ADRIAN         CLOUDY    69  67  93 N14       29.91R
ALMA           CLOUDY    65  55  69 N15G21    29.95R
ANN ARBOR      CLOUDY    66  64  93 NW13      29.89R
BAD AXE          N/A    N/A N/A N/A MISG        N/A
CARO           CLOUDY    64  62  94 N6        29.90R FOG
DETROIT CITY   LGT RAIN  76  70  82 W12G22    29.86R
DETROIT        LGT RAIN  70  66  88 W12       29.87R FOG
FLINT          LGT RAIN  65  61  87 NW10      29.92R FOG
GROSSE ILE     LGT RAIN  75  72  88 SW6       29.86R
HILLSDALE      CLOUDY    65  65 100 NW12      29.93R FOG
HOWELL         CLOUDY    64  62  95 NW9       29.92R

CITY           SKY/WX    TMP DP  RH WIND       PRES   REMARKS
JACKSON        CLOUDY    65  61  87 NW9       29.93R
LAMBERTVILLE   LGT RAIN  75  71  87 SW7       29.89R
LANSING        CLOUDY    67  59  75 N10       29.93S
LAPEER         RAIN      63  61  94 N5        29.90R
MASON          CLOUDY    61  59  94 N6G16     29.93R
MONROE         DRIZZLE   75  72  91 SW10      29.86S
MT. CLEMENS    CLOUDY    68  66  94 NW13      29.86R
PONTIAC        CLOUDY    64  62  93 NW13      29.89R
PORT HOPE        N/A     63  59  87 VRB5      29.88R
PORT HURON     LGT RAIN  64  63  94 NE9       29.89R
TRI CITIES     CLOUDY    68  56  65 NW17      29.92R
MIDLAND        CLOUDY    67  55  65 NW12G17   29.92R
TROY           RAIN      67  65  92 NW10      29.90R
SAGINAW HB     CLOUDY    64  64 100 NW8       29.90R
$$
MIZ043>046-050>051-056>058-064>065-071>073-077>080-072000-
SOUTHWEST LOWER MICHIGAN

CITY           SKY/WX    TMP DP  RH WIND       PRES   REMARKS
BATTLE CREEK   PTSUNNY   71  58  63 N9        29.94R
BENTON HARBOR  SUNNY     63  51  65 N14G28    30.00R
BIG RAPIDS     PTSUNNY   65  49  55 N16       29.96R
COLDWATER      CLOUDY    66  61  84 N6        29.94R
FREMONT        PTSUNNY   67  49  51 N12G23    29.97R
HOLLAND        SUNNY     68  51  54 NW13G23   29.97R
GRAND RAPIDS   PTSUNNY   70  55  59 N13       29.94R
IONIA          CLOUDY    68  56  66 N8        29.93R
KALAMAZOO      PTSUNNY   72  57  59 N13G18    29.94R
LUDINGTON      SUNNY     63  48  57 NE14G29   30.02S
MARSHALL       CLOUDY    68  60  77 N3        29.93S
MOUNT PLEASANT CLOUDY    64  52  65 NW9       29.94S
MUSKEGON       MOSUNNY   71  49  45 N18G25    29.98R
SOUTH HAVEN    SUNNY     63  51  63 N17G26    29.98S
$$
MIZ016>042-072000-
NORTHERN LOWER MICHIGAN

CITY           SKY/WX    TMP DP  RH WIND       PRES   REMARKS
ALPENA         CLOUDY    65  53  65 NW17G24   29.92R
BEAVER ISLAND  MOSUNNY   64  47  55 N9G16     30.00S
BELLAIRE       PTSUNNY   65  47  52 N9        29.99R
CADILLAC       CLOUDY    62  48  60 NW15G21   29.98R
CHARLEVOIX     PTSUNNY   64  47  54 NW13G21   30.02S
FRANKFORT      SUNNY     65  46  49 N10G20    30.03S
GAYLORD        CLOUDY    61  49  64 NW12G21   29.96S
GRAYLING       CLOUDY    63  49  60 NW13G22   29.97S
HARBOR SPRINGS PTSUNNY   65  48  53 W9G18     29.98R
HOUGHTON LAKE  CLOUDY    62  50  64 NW12G22   29.96R
MANISTEE       MOSUNNY  N/A N/A N/A N17G26    30.03S
OSCODA         CLOUDY    64  57  79 N13       29.90R
PELLSTON       PTSUNNY   65  46  50 NW18G28   29.97R
ROGERS CITY    CLOUDY    62  51  66 NW14G26   29.94S
TRAVERSE CITY  PTSUNNY   65  46  50 N12G24    29.98S
$$
MIZ007>008-015-072000-
EASTERN UPPER MICHIGAN

CITY           SKY/WX    TMP DP  RH WIND       PRES   REMARKS
KINROSS        PTSUNNY   59  48  67 NW21G26   29.96R
MACKINAC ISLAN PTSUNNY   64  48  56 NW12G17   29.96R
NEWBERRY       CLOUDY    58  48  68 N13G20    30.00R
S. S. MARIE    CLOUDY    62  49  62 NW12G20   29.95S
MUNISING         N/A     56  47  71 NW16      30.06S
$$
MIZ004>006-011>014-085-072000-
CENTRAL UPPER MICHIGAN

CITY           SKY/WX    TMP DP  RH WIND       PRES   REMARKS
MANISTIQUE     PTSUNNY   63  47  54 NW14G26   30.01S
ESCANABA       PTSUNNY   64  46  52 N17G24    30.04S
MENOMINEE      PTSUNNY   64  46  52 N14G21    30.05R
SAWYER-GWINN   SUNNY     61  45  55 N21G26    30.06S
$$
MIZ001>003-009>011-084-072000-
WESTERN UPPER MICHIGAN

CITY           SKY/WX    TMP DP  RH WIND       PRES   REMARKS
IRON MOUNTAIN  CLOUDY    64  46  52 N15       30.06S
HOUGHTON       SUNNY     63  44  50 NW14G21   30.09S
COPPER HARBOR    N/A     61  47  59 N15       30.07R
IRONWOOD       SUNNY     61  41  48 NW7       30.11F
$$

ABBREVIATIONS USED IN REMARKS
   TC - TEMPERATURE IN CELSIUS
  WCI - WIND CHILL INDEX
   HX - HEAT INDEX
  VSB - VISIBILITY




USA.gov is the U.S. government's official web portal to all federal, state and local government web resources and services.